owner,sensor,date,latitude,longitude,air_temperature,qcFlag 
WAVCIS,ioos:station:WAVCIS:CSI03:1,2010-10-01T00:00:00Z,29.4412,-92.0613,27.77,11111222 
WAVCIS,ioos:station:WAVCIS:CSI03:1,2010-10-01T01:00:00Z,29.4412,-92.0613,27.4,11111222 
WAVCIS,ioos:station:WAVCIS:CSI03:1,2010-10-01T02:00:00Z,29.4412,-92.0613,27.27,11111222 
WAVCIS,ioos:station:WAVCIS:CSI03:1,2010-10-01T03:00:00Z,29.4412,-92.0613,26.92,11111222 
WAVCIS,ioos:station:WAVCIS:CSI03:1,2010-10-01T04:00:00Z,29.4412,-92.0613,26.17,11111222 
WAVCIS,ioos:station:WAVCIS:CSI03:1,2010-10-01T05:00:00Z,29.4412,-92.0613,26.25,11111222 
WAVCIS,ioos:station:WAVCIS:CSI03:1,2010-10-01T06:00:00Z,29.4412,-92.0613,25.93,11111222 
WAVCIS,ioos:station:WAVCIS:CSI03:1,2010-10-01T07:00:00Z,29.4412,-92.0613,25.33,11111222 
WAVCIS,ioos:station:WAVCIS:CSI03:1,2010-10-01T08:00:00Z,29.4412,-92.0613,25.3,11111222 
WAVCIS,ioos:station:WAVCIS:CSI03:1,2010-10-01T09:00:00Z,29.4412,-92.0613,25.27,11111222 
WAVCIS,ioos:station:WAVCIS:CSI03:1,2010-10-01T10:00:00Z,29.4412,-92.0613,25.53,11111222 
WAVCIS,ioos:station:WAVCIS:CSI03:1,2010-10-01T11:00:00Z,29.4412,-92.0613,25.2,11111222 
WAVCIS,ioos:station:WAVCIS:CSI03:1,2010-10-01T12:00:00Z,29.4412,-92.0613,24.01,11111222 
WAVCIS,ioos:station:WAVCIS:CSI03:1,2010-10-01T13:00:00Z,29.4412,-92.0613,23.23,11111222 
WAVCIS,ioos:station:WAVCIS:CSI03:1,2010-10-01T14:00:00Z,29.4412,-92.0613,22.76,11111222 
WAVCIS,ioos:station:WAVCIS:CSI03:1,2010-10-01T15:00:00Z,29.4412,-92.0613,23.11,11111222 
WAVCIS,ioos:station:WAVCIS:CSI03:1,2010-10-01T16:00:00Z,29.4412,-92.0613,24.07,11111222 
WAVCIS,ioos:station:WAVCIS:CSI03:1,2010-10-01T17:00:00Z,29.4412,-92.0613,24.67,11111222 
WAVCIS,ioos:station:WAVCIS:CSI03:1,2010-10-01T18:00:00Z,29.4412,-92.0613,24.75,11111222 
WAVCIS,ioos:station:WAVCIS:CSI03:1,2010-10-01T19:00:00Z,29.4412,-92.0613,26.17,11111222 
WAVCIS,ioos:station:WAVCIS:CSI03:1,2010-10-01T20:00:00Z,29.4412,-92.0613,27.23,11111222 
WAVCIS,ioos:station:WAVCIS:CSI03:1,2010-10-01T21:00:00Z,29.4412,-92.0613,27.66,11111222 
WAVCIS,ioos:station:WAVCIS:CSI03:1,2010-10-01T22:00:00Z,29.4412,-92.0613,27.86,11111222 
WAVCIS,ioos:station:WAVCIS:CSI03:1,2010-10-01T23:00:00Z,29.4412,-92.0613,27.74,11111222 
WAVCIS,ioos:station:WAVCIS:CSI03:1,2010-10-02T00:00:00Z,29.4412,-92.0613,27.05,11111222 
WAVCIS,ioos:station:WAVCIS:CSI03:1,2010-10-02T01:00:00Z,29.4412,-92.0613,26.03,11111222 
WAVCIS,ioos:station:WAVCIS:CSI03:1,2010-10-02T02:00:00Z,29.4412,-92.0613,25.71,11111222 
WAVCIS,ioos:station:WAVCIS:CSI03:1,2010-10-02T03:00:00Z,29.4412,-92.0613,25.48,11111222 
WAVCIS,ioos:station:WAVCIS:CSI03:1,2010-10-02T04:00:00Z,29.4412,-92.0613,25.08,11111222 
WAVCIS,ioos:station:WAVCIS:CSI03:1,2010-10-02T05:00:00Z,29.4412,-92.0613,24.76,11111222 
WAVCIS,ioos:station:WAVCIS:CSI03:1,2010-10-02T06:00:00Z,29.4412,-92.0613,23.91,11111222 
WAVCIS,ioos:station:WAVCIS:CSI03:1,2010-10-02T07:00:00Z,29.4412,-92.0613,23.45,11111222 
WAVCIS,ioos:station:WAVCIS:CSI03:1,2010-10-02T08:00:00Z,29.4412,-92.0613,23.39,11111222 
WAVCIS,ioos:station:WAVCIS:CSI03:1,2010-10-02T09:00:00Z,29.4412,-92.0613,22.51,11111222 
WAVCIS,ioos:station:WAVCIS:CSI03:1,2010-10-02T10:00:00Z,29.4412,-92.0613,21.87,11111222 
WAVCIS,ioos:station:WAVCIS:CSI03:1,2010-10-02T11:00:00Z,29.4412,-92.0613,20.87,11111222 
WAVCIS,ioos:station:WAVCIS:CSI03:1,2010-10-02T12:00:00Z,29.4412,-92.0613,20.15,11111222 
WAVCIS,ioos:station:WAVCIS:CSI03:1,2010-10-02T13:00:00Z,29.4412,-92.0613,20.16,11111222 
WAVCIS,ioos:station:WAVCIS:CSI03:1,2010-10-02T14:00:00Z,29.4412,-92.0613,20.67,11111222 
WAVCIS,ioos:station:WAVCIS:CSI03:1,2010-10-02T15:00:00Z,29.4412,-92.0613,20.74,11111222 
WAVCIS,ioos:station:WAVCIS:CSI03:1,2010-10-02T16:00:00Z,29.4412,-92.0613,21.52,11111222 
WAVCIS,ioos:station:WAVCIS:CSI03:1,2010-10-02T17:00:00Z,29.4412,-92.0613,22.32,11111222 
WAVCIS,ioos:station:WAVCIS:CSI03:1,2010-10-02T18:00:00Z,29.4412,-92.0613,23.44,11111222 
WAVCIS,ioos:station:WAVCIS:CSI03:1,2010-10-02T19:00:00Z,29.4412,-92.0613,24.58,11111222 
WAVCIS,ioos:station:WAVCIS:CSI03:1,2010-10-02T20:00:00Z,29.4412,-92.0613,25.33,11111222 
WAVCIS,ioos:station:WAVCIS:CSI03:1,2010-10-02T21:00:00Z,29.4412,-92.0613,25.92,11111222 
WAVCIS,ioos:station:WAVCIS:CSI03:1,2010-10-02T22:00:00Z,29.4412,-92.0613,26.19,11111222 
WAVCIS,ioos:station:WAVCIS:CSI03:1,2010-10-02T23:00:00Z,29.4412,-92.0613,26.58,11111222 
WAVCIS,ioos:station:WAVCIS:CSI03:1,2010-10-03T00:00:00Z,29.4412,-92.0613,25.89,11111222 
WAVCIS,ioos:station:WAVCIS:CSI03:1,2010-10-03T01:00:00Z,29.4412,-92.0613,25.43,11111222 
WAVCIS,ioos:station:WAVCIS:CSI03:1,2010-10-03T02:00:00Z,29.4412,-92.0613,25.26,11111222 
WAVCIS,ioos:station:WAVCIS:CSI03:1,2010-10-03T03:00:00Z,29.4412,-92.0613,24.96,11111222 
WAVCIS,ioos:station:WAVCIS:CSI03:1,2010-10-03T04:00:00Z,29.4412,-92.0613,24.9,11111222 
WAVCIS,ioos:station:WAVCIS:CSI03:1,2010-10-03T05:00:00Z,29.4412,-92.0613,24.07,11111222 
WAVCIS,ioos:station:WAVCIS:CSI03:1,2010-10-03T06:00:00Z,29.4412,-92.0613,23.64,11111222 
WAVCIS,ioos:station:WAVCIS:CSI03:1,2010-10-03T07:00:00Z,29.4412,-92.0613,22.95,11111222 
WAVCIS,ioos:station:WAVCIS:CSI03:1,2010-10-03T08:00:00Z,29.4412,-92.0613,22.72,11111222 
WAVCIS,ioos:station:WAVCIS:CSI03:1,2010-10-03T09:00:00Z,29.4412,-92.0613,22.77,11111222 
WAVCIS,ioos:station:WAVCIS:CSI03:1,2010-10-03T10:00:00Z,29.4412,-92.0613,21.23,11111222 
WAVCIS,ioos:station:WAVCIS:CSI03:1,2010-10-03T11:00:00Z,29.4412,-92.0613,18.86,11111222 
WAVCIS,ioos:station:WAVCIS:CSI03:1,2010-10-03T12:00:00Z,29.4412,-92.0613,18.4,11111222 
WAVCIS,ioos:station:WAVCIS:CSI03:1,2010-10-03T13:00:00Z,29.4412,-92.0613,17.69,11111222 
WAVCIS,ioos:station:WAVCIS:CSI03:1,2010-10-03T14:00:00Z,29.4412,-92.0613,17.65,11111222 
WAVCIS,ioos:station:WAVCIS:CSI03:1,2010-10-03T15:00:00Z,29.4412,-92.0613,17.76,11111222 
WAVCIS,ioos:station:WAVCIS:CSI03:1,2010-10-03T16:00:00Z,29.4412,-92.0613,18.56,11111222 
WAVCIS,ioos:station:WAVCIS:CSI03:1,2010-10-03T17:00:00Z,29.4412,-92.0613,19.32,11111222 
WAVCIS,ioos:station:WAVCIS:CSI03:1,2010-10-03T18:00:00Z,29.4412,-92.0613,20.54,11111222 
WAVCIS,ioos:station:WAVCIS:CSI03:1,2010-10-03T19:00:00Z,29.4412,-92.0613,21.76,11111222 
WAVCIS,ioos:station:WAVCIS:CSI03:1,2010-10-03T20:00:00Z,29.4412,-92.0613,22.33,11111222 
WAVCIS,ioos:station:WAVCIS:CSI03:1,2010-10-03T21:00:00Z,29.4412,-92.0613,22.76,11111222 
WAVCIS,ioos:station:WAVCIS:CSI03:1,2010-10-03T22:00:00Z,29.4412,-92.0613,23.02,11111222 
WAVCIS,ioos:station:WAVCIS:CSI03:1,2010-10-03T23:00:00Z,29.4412,-92.0613,22.83,11111222 
WAVCIS,ioos:station:WAVCIS:CSI03:1,2010-10-04T00:00:00Z,29.4412,-92.0613,22.2,11111222 
WAVCIS,ioos:station:WAVCIS:CSI03:1,2010-10-04T01:00:00Z,29.4412,-92.0613,21.25,11111222 
WAVCIS,ioos:station:WAVCIS:CSI03:1,2010-10-04T02:00:00Z,29.4412,-92.0613,20.83,11111222 
WAVCIS,ioos:station:WAVCIS:CSI03:1,2010-10-04T03:00:00Z,29.4412,-92.0613,20.35,11111222 
WAVCIS,ioos:station:WAVCIS:CSI03:1,2010-10-04T04:00:00Z,29.4412,-92.0613,19.83,11111222 
WAVCIS,ioos:station:WAVCIS:CSI03:1,2010-10-04T05:00:00Z,29.4412,-92.0613,18.96,11111222 
WAVCIS,ioos:station:WAVCIS:CSI03:1,2010-10-04T06:00:00Z,29.4412,-92.0613,18.24,11111222 
WAVCIS,ioos:station:WAVCIS:CSI03:1,2010-10-04T07:00:00Z,29.4412,-92.0613,17.45,11111222 
WAVCIS,ioos:station:WAVCIS:CSI03:1,2010-10-04T08:00:00Z,29.4412,-92.0613,16.95,11111222 
WAVCIS,ioos:station:WAVCIS:CSI03:1,2010-10-04T09:00:00Z,29.4412,-92.0613,16.68,11111222 
WAVCIS,ioos:station:WAVCIS:CSI03:1,2010-10-04T10:00:00Z,29.4412,-92.0613,16.34,11111222 
WAVCIS,ioos:station:WAVCIS:CSI03:1,2010-10-04T11:00:00Z,29.4412,-92.0613,16.0,11111222 
WAVCIS,ioos:station:WAVCIS:CSI03:1,2010-10-04T12:00:00Z,29.4412,-92.0613,15.81,11111222 
WAVCIS,ioos:station:WAVCIS:CSI03:1,2010-10-04T13:00:00Z,29.4412,-92.0613,15.83,11111222 
WAVCIS,ioos:station:WAVCIS:CSI03:1,2010-10-04T14:00:00Z,29.4412,-92.0613,15.85,11111222 
WAVCIS,ioos:station:WAVCIS:CSI03:1,2010-10-04T15:00:00Z,29.4412,-92.0613,16.15,11111222 
WAVCIS,ioos:station:WAVCIS:CSI03:1,2010-10-04T16:00:00Z,29.4412,-92.0613,16.76,11111222 
WAVCIS,ioos:station:WAVCIS:CSI03:1,2010-10-04T17:00:00Z,29.4412,-92.0613,17.48,11111222 
WAVCIS,ioos:station:WAVCIS:CSI03:1,2010-10-04T18:00:00Z,29.4412,-92.0613,17.87,11111222 
WAVCIS,ioos:station:WAVCIS:CSI03:1,2010-10-04T19:00:00Z,29.4412,-92.0613,18.42,11111222 
WAVCIS,ioos:station:WAVCIS:CSI03:1,2010-10-04T20:00:00Z,29.4412,-92.0613,19.15,11111222 
WAVCIS,ioos:station:WAVCIS:CSI03:1,2010-10-04T21:00:00Z,29.4412,-92.0613,20.07,11111222 
WAVCIS,ioos:station:WAVCIS:CSI03:1,2010-10-04T22:00:00Z,29.4412,-92.0613,20.59,11111222 
WAVCIS,ioos:station:WAVCIS:CSI03:1,2010-10-04T23:00:00Z,29.4412,-92.0613,20.91,11111222 
WAVCIS,ioos:station:WAVCIS:CSI03:1,2010-10-05T00:00:00Z,29.4412,-92.0613,20.71,11111222 
WAVCIS,ioos:station:WAVCIS:CSI03:1,2010-10-05T01:00:00Z,29.4412,-92.0613,20.4,11111222 
WAVCIS,ioos:station:WAVCIS:CSI03:1,2010-10-05T02:00:00Z,29.4412,-92.0613,20.17,11111222 
WAVCIS,ioos:station:WAVCIS:CSI03:1,2010-10-05T03:00:00Z,29.4412,-92.0613,19.79,11111222 
WAVCIS,ioos:station:WAVCIS:CSI03:1,2010-10-05T04:00:00Z,29.4412,-92.0613,19.16,11111222 
WAVCIS,ioos:station:WAVCIS:CSI03:1,2010-10-05T05:00:00Z,29.4412,-92.0613,18.74,11111222 
WAVCIS,ioos:station:WAVCIS:CSI03:1,2010-10-05T06:00:00Z,29.4412,-92.0613,18.08,11111222 
WAVCIS,ioos:station:WAVCIS:CSI03:1,2010-10-05T07:00:00Z,29.4412,-92.0613,17.72,11111222 
WAVCIS,ioos:station:WAVCIS:CSI03:1,2010-10-05T08:00:00Z,29.4412,-92.0613,17.36,11111222 
WAVCIS,ioos:station:WAVCIS:CSI03:1,2010-10-05T09:00:00Z,29.4412,-92.0613,17.47,11111222 
WAVCIS,ioos:station:WAVCIS:CSI03:1,2010-10-05T10:00:00Z,29.4412,-92.0613,16.77,11111222 
WAVCIS,ioos:station:WAVCIS:CSI03:1,2010-10-05T11:00:00Z,29.4412,-92.0613,16.43,11111222 
WAVCIS,ioos:station:WAVCIS:CSI03:1,2010-10-05T12:00:00Z,29.4412,-92.0613,16.21,11111222 
WAVCIS,ioos:station:WAVCIS:CSI03:1,2010-10-05T13:00:00Z,29.4412,-92.0613,16.04,11111222 
WAVCIS,ioos:station:WAVCIS:CSI03:1,2010-10-05T14:00:00Z,29.4412,-92.0613,15.98,11111222 
WAVCIS,ioos:station:WAVCIS:CSI03:1,2010-10-05T15:00:00Z,29.4412,-92.0613,16.53,11111222 
WAVCIS,ioos:station:WAVCIS:CSI03:1,2010-10-05T16:00:00Z,29.4412,-92.0613,17.19,11111222 
WAVCIS,ioos:station:WAVCIS:CSI03:1,2010-10-05T17:00:00Z,29.4412,-92.0613,17.86,11111222 
WAVCIS,ioos:station:WAVCIS:CSI03:1,2010-10-05T18:00:00Z,29.4412,-92.0613,18.57,11111222 
WAVCIS,ioos:station:WAVCIS:CSI03:1,2010-10-05T19:00:00Z,29.4412,-92.0613,19.43,11111222 
WAVCIS,ioos:station:WAVCIS:CSI03:1,2010-10-05T20:00:00Z,29.4412,-92.0613,20.14,11111222 
WAVCIS,ioos:station:WAVCIS:CSI03:1,2010-10-05T21:00:00Z,29.4412,-92.0613,20.84,11111222 
WAVCIS,ioos:station:WAVCIS:CSI03:1,2010-10-05T22:00:00Z,29.4412,-92.0613,21.35,11111222 
WAVCIS,ioos:station:WAVCIS:CSI03:1,2010-10-05T23:00:00Z,29.4412,-92.0613,21.78,11111222 
WAVCIS,ioos:station:WAVCIS:CSI03:1,2010-10-06T00:00:00Z,29.4412,-92.0613,21.43,11111222 
WAVCIS,ioos:station:WAVCIS:CSI03:1,2010-10-06T01:00:00Z,29.4412,-92.0613,20.99,11111222 
WAVCIS,ioos:station:WAVCIS:CSI03:1,2010-10-06T02:00:00Z,29.4412,-92.0613,21.02,11111222 
WAVCIS,ioos:station:WAVCIS:CSI03:1,2010-10-06T03:00:00Z,29.4412,-92.0613,20.86,11111222 
WAVCIS,ioos:station:WAVCIS:CSI03:1,2010-10-06T04:00:00Z,29.4412,-92.0613,20.48,11111222 
WAVCIS,ioos:station:WAVCIS:CSI03:1,2010-10-06T05:00:00Z,29.4412,-92.0613,19.71,11111222 
WAVCIS,ioos:station:WAVCIS:CSI03:1,2010-10-06T06:00:00Z,29.4412,-92.0613,19.29,11111222 
WAVCIS,ioos:station:WAVCIS:CSI03:1,2010-10-06T07:00:00Z,29.4412,-92.0613,18.58,11111222 
WAVCIS,ioos:station:WAVCIS:CSI03:1,2010-10-06T08:00:00Z,29.4412,-92.0613,18.34,11111222 
WAVCIS,ioos:station:WAVCIS:CSI03:1,2010-10-06T09:00:00Z,29.4412,-92.0613,18.13,11111222 
WAVCIS,ioos:station:WAVCIS:CSI03:1,2010-10-06T10:00:00Z,29.4412,-92.0613,17.97,11111222 
WAVCIS,ioos:station:WAVCIS:CSI03:1,2010-10-06T11:00:00Z,29.4412,-92.0613,17.53,11111222 
WAVCIS,ioos:station:WAVCIS:CSI03:1,2010-10-06T12:00:00Z,29.4412,-92.0613,17.36,11111222 
WAVCIS,ioos:station:WAVCIS:CSI03:1,2010-10-06T13:00:00Z,29.4412,-92.0613,17.26,11111222 
WAVCIS,ioos:station:WAVCIS:CSI03:1,2010-10-06T14:00:00Z,29.4412,-92.0613,17.16,11111222 
WAVCIS,ioos:station:WAVCIS:CSI03:1,2010-10-06T15:00:00Z,29.4412,-92.0613,18.14,11111222 
WAVCIS,ioos:station:WAVCIS:CSI03:1,2010-10-06T16:00:00Z,29.4412,-92.0613,19.42,11111222 
WAVCIS,ioos:station:WAVCIS:CSI03:1,2010-10-06T17:00:00Z,29.4412,-92.0613,20.59,11111222 
WAVCIS,ioos:station:WAVCIS:CSI03:1,2010-10-06T18:00:00Z,29.4412,-92.0613,21.14,11111222 
WAVCIS,ioos:station:WAVCIS:CSI03:1,2010-10-06T19:00:00Z,29.4412,-92.0613,21.45,11111222 
WAVCIS,ioos:station:WAVCIS:CSI03:1,2010-10-06T20:00:00Z,29.4412,-92.0613,22.51,11111222 
WAVCIS,ioos:station:WAVCIS:CSI03:1,2010-10-06T21:00:00Z,29.4412,-92.0613,23.05,11111222 
WAVCIS,ioos:station:WAVCIS:CSI03:1,2010-10-06T22:00:00Z,29.4412,-92.0613,22.91,11111222 
WAVCIS,ioos:station:WAVCIS:CSI03:1,2010-10-06T23:00:00Z,29.4412,-92.0613,23.4,11111222 
WAVCIS,ioos:station:WAVCIS:CSI03:1,2010-10-07T00:00:00Z,29.4412,-92.0613,22.75,11111222 
WAVCIS,ioos:station:WAVCIS:CSI03:1,2010-10-07T01:00:00Z,29.4412,-92.0613,21.61,11111222 
WAVCIS,ioos:station:WAVCIS:CSI03:1,2010-10-07T02:00:00Z,29.4412,-92.0613,21.65,11111222 
WAVCIS,ioos:station:WAVCIS:CSI03:1,2010-10-07T03:00:00Z,29.4412,-92.0613,21.45,11111222 
WAVCIS,ioos:station:WAVCIS:CSI03:1,2010-10-07T04:00:00Z,29.4412,-92.0613,21.39,11111222 
WAVCIS,ioos:station:WAVCIS:CSI03:1,2010-10-07T05:00:00Z,29.4412,-92.0613,21.43,11111222 
WAVCIS,ioos:station:WAVCIS:CSI03:1,2010-10-07T06:00:00Z,29.4412,-92.0613,20.73,11111222 
WAVCIS,ioos:station:WAVCIS:CSI03:1,2010-10-07T07:00:00Z,29.4412,-92.0613,20.37,11111222 
WAVCIS,ioos:station:WAVCIS:CSI03:1,2010-10-07T08:00:00Z,29.4412,-92.0613,19.65,11111222 
WAVCIS,ioos:station:WAVCIS:CSI03:1,2010-10-07T09:00:00Z,29.4412,-92.0613,18.99,11111222 
WAVCIS,ioos:station:WAVCIS:CSI03:1,2010-10-07T10:00:00Z,29.4412,-92.0613,19.11,11111222 
WAVCIS,ioos:station:WAVCIS:CSI03:1,2010-10-07T11:00:00Z,29.4412,-92.0613,19.43,11111222 
WAVCIS,ioos:station:WAVCIS:CSI03:1,2010-10-07T12:00:00Z,29.4412,-92.0613,19.83,11111222 
WAVCIS,ioos:station:WAVCIS:CSI03:1,2010-10-07T13:00:00Z,29.4412,-92.0613,20.18,11111222 
WAVCIS,ioos:station:WAVCIS:CSI03:1,2010-10-07T14:00:00Z,29.4412,-92.0613,20.01,11111222 
WAVCIS,ioos:station:WAVCIS:CSI03:1,2010-10-07T15:00:00Z,29.4412,-92.0613,20.0,11111222 
WAVCIS,ioos:station:WAVCIS:CSI03:1,2010-10-07T16:00:00Z,29.4412,-92.0613,20.64,11111222 
WAVCIS,ioos:station:WAVCIS:CSI03:1,2010-10-07T17:00:00Z,29.4412,-92.0613,21.0,11111222 
WAVCIS,ioos:station:WAVCIS:CSI03:1,2010-10-07T18:00:00Z,29.4412,-92.0613,21.72,11111222 
WAVCIS,ioos:station:WAVCIS:CSI03:1,2010-10-07T19:00:00Z,29.4412,-92.0613,22.78,11111222 
WAVCIS,ioos:station:WAVCIS:CSI03:1,2010-10-07T20:00:00Z,29.4412,-92.0613,25.2,11111222 
WAVCIS,ioos:station:WAVCIS:CSI03:1,2010-10-07T21:00:00Z,29.4412,-92.0613,26.73,11111222 
WAVCIS,ioos:station:WAVCIS:CSI03:1,2010-10-07T22:00:00Z,29.4412,-92.0613,23.91,11111222 
WAVCIS,ioos:station:WAVCIS:CSI03:1,2010-10-07T23:00:00Z,29.4412,-92.0613,24.21,11111222 
WAVCIS,ioos:station:WAVCIS:CSI03:1,2010-10-08T00:00:00Z,29.4412,-92.0613,22.9,11111222 
WAVCIS,ioos:station:WAVCIS:CSI03:1,2010-10-08T01:00:00Z,29.4412,-92.0613,22.74,11111222 
WAVCIS,ioos:station:WAVCIS:CSI03:1,2010-10-08T02:00:00Z,29.4412,-92.0613,22.51,11111222 
WAVCIS,ioos:station:WAVCIS:CSI03:1,2010-10-08T03:00:00Z,29.4412,-92.0613,22.59,11111222 
WAVCIS,ioos:station:WAVCIS:CSI03:1,2010-10-08T04:00:00Z,29.4412,-92.0613,22.44,11111222 
WAVCIS,ioos:station:WAVCIS:CSI03:1,2010-10-08T05:00:00Z,29.4412,-92.0613,22.44,11111222 
WAVCIS,ioos:station:WAVCIS:CSI03:1,2010-10-08T06:00:00Z,29.4412,-92.0613,22.61,11111222 
WAVCIS,ioos:station:WAVCIS:CSI03:1,2010-10-08T07:00:00Z,29.4412,-92.0613,21.88,11111222 
WAVCIS,ioos:station:WAVCIS:CSI03:1,2010-10-08T08:00:00Z,29.4412,-92.0613,21.26,11111222 
WAVCIS,ioos:station:WAVCIS:CSI03:1,2010-10-08T09:00:00Z,29.4412,-92.0613,20.83,11111222 
WAVCIS,ioos:station:WAVCIS:CSI03:1,2010-10-08T10:00:00Z,29.4412,-92.0613,20.65,11111222 
WAVCIS,ioos:station:WAVCIS:CSI03:1,2010-10-08T11:00:00Z,29.4412,-92.0613,20.63,11111222 
WAVCIS,ioos:station:WAVCIS:CSI03:1,2010-10-08T12:00:00Z,29.4412,-92.0613,20.57,11111222 
WAVCIS,ioos:station:WAVCIS:CSI03:1,2010-10-08T13:00:00Z,29.4412,-92.0613,20.64,11111222 
WAVCIS,ioos:station:WAVCIS:CSI03:1,2010-10-08T14:00:00Z,29.4412,-92.0613,20.76,11111222 
WAVCIS,ioos:station:WAVCIS:CSI03:1,2010-10-08T15:00:00Z,29.4412,-92.0613,20.54,11111222 
WAVCIS,ioos:station:WAVCIS:CSI03:1,2010-10-08T16:00:00Z,29.4412,-92.0613,20.92,11111222 
WAVCIS,ioos:station:WAVCIS:CSI03:1,2010-10-08T17:00:00Z,29.4412,-92.0613,21.79,11111222 
WAVCIS,ioos:station:WAVCIS:CSI03:1,2010-10-08T18:00:00Z,29.4412,-92.0613,24.08,11111222 
WAVCIS,ioos:station:WAVCIS:CSI03:1,2010-10-08T19:00:00Z,29.4412,-92.0613,24.2,11111222 
WAVCIS,ioos:station:WAVCIS:CSI03:1,2010-10-08T20:00:00Z,29.4412,-92.0613,25.0,11111222 
WAVCIS,ioos:station:WAVCIS:CSI03:1,2010-10-08T21:00:00Z,29.4412,-92.0613,26.67,11111222 
WAVCIS,ioos:station:WAVCIS:CSI03:1,2010-10-08T22:00:00Z,29.4412,-92.0613,25.26,11111222 
WAVCIS,ioos:station:WAVCIS:CSI03:1,2010-10-11T18:00:00Z,29.4412,-92.0613,25.31,11111222 
WAVCIS,ioos:station:WAVCIS:CSI03:1,2010-10-11T19:00:00Z,29.4412,-92.0613,26.28,11111222 
WAVCIS,ioos:station:WAVCIS:CSI03:1,2010-10-11T20:00:00Z,29.4412,-92.0613,27.47,11111222 
WAVCIS,ioos:station:WAVCIS:CSI03:1,2010-10-11T21:00:00Z,29.4412,-92.0613,26.64,11111222 
WAVCIS,ioos:station:WAVCIS:CSI03:1,2010-10-11T22:00:00Z,29.4412,-92.0613,26.7,11111222 
WAVCIS,ioos:station:WAVCIS:CSI03:1,2010-10-11T23:00:00Z,29.4412,-92.0613,26.2,11111222 
WAVCIS,ioos:station:WAVCIS:CSI03:1,2010-10-12T00:00:00Z,29.4412,-92.0613,25.91,11111222 
WAVCIS,ioos:station:WAVCIS:CSI03:1,2010-10-12T01:00:00Z,29.4412,-92.0613,26.21,11111222 
WAVCIS,ioos:station:WAVCIS:CSI03:1,2010-10-12T02:00:00Z,29.4412,-92.0613,25.4,11111222 
WAVCIS,ioos:station:WAVCIS:CSI03:1,2010-10-12T03:00:00Z,29.4412,-92.0613,25.3,11111222 
WAVCIS,ioos:station:WAVCIS:CSI03:1,2010-10-12T04:00:00Z,29.4412,-92.0613,25.11,11111222 
WAVCIS,ioos:station:WAVCIS:CSI03:1,2010-10-12T05:00:00Z,29.4412,-92.0613,25.55,11111222 
WAVCIS,ioos:station:WAVCIS:CSI03:1,2010-10-12T06:00:00Z,29.4412,-92.0613,25.29,11111222 
WAVCIS,ioos:station:WAVCIS:CSI03:1,2010-10-12T07:00:00Z,29.4412,-92.0613,22.29,11111222 
WAVCIS,ioos:station:WAVCIS:CSI03:1,2010-10-12T08:00:00Z,29.4412,-92.0613,22.34,11111222 
WAVCIS,ioos:station:WAVCIS:CSI03:1,2010-10-12T09:00:00Z,29.4412,-92.0613,23.99,11111222 
WAVCIS,ioos:station:WAVCIS:CSI03:1,2010-10-12T10:00:00Z,29.4412,-92.0613,18.27,11111222 
WAVCIS,ioos:station:WAVCIS:CSI03:1,2010-10-12T11:00:00Z,29.4412,-92.0613,18.51,11111222 
WAVCIS,ioos:station:WAVCIS:CSI03:1,2010-10-12T12:00:00Z,29.4412,-92.0613,19.61,11111222 
WAVCIS,ioos:station:WAVCIS:CSI03:1,2010-10-12T13:00:00Z,29.4412,-92.0613,20.33,11111222 
WAVCIS,ioos:station:WAVCIS:CSI03:1,2010-10-12T14:00:00Z,29.4412,-92.0613,21.02,11111222 
WAVCIS,ioos:station:WAVCIS:CSI03:1,2010-10-12T15:00:00Z,29.4412,-92.0613,21.52,11111222 
WAVCIS,ioos:station:WAVCIS:CSI03:1,2010-10-12T16:00:00Z,29.4412,-92.0613,22.35,11111222 
WAVCIS,ioos:station:WAVCIS:CSI03:1,2010-10-12T17:00:00Z,29.4412,-92.0613,25.19,11111222 
WAVCIS,ioos:station:WAVCIS:CSI03:1,2010-10-12T18:00:00Z,29.4412,-92.0613,24.1,11111222 
WAVCIS,ioos:station:WAVCIS:CSI03:1,2010-10-12T19:00:00Z,29.4412,-92.0613,24.96,11111222 
WAVCIS,ioos:station:WAVCIS:CSI03:1,2010-10-12T20:00:00Z,29.4412,-92.0613,25.06,11111222 
WAVCIS,ioos:station:WAVCIS:CSI03:1,2010-10-12T21:00:00Z,29.4412,-92.0613,25.22,11111222 
WAVCIS,ioos:station:WAVCIS:CSI03:1,2010-10-12T22:00:00Z,29.4412,-92.0613,25.31,11111222 
WAVCIS,ioos:station:WAVCIS:CSI03:1,2010-10-12T23:00:00Z,29.4412,-92.0613,25.28,11111222 
WAVCIS,ioos:station:WAVCIS:CSI03:1,2010-10-13T00:00:00Z,29.4412,-92.0613,25.13,11111222 
WAVCIS,ioos:station:WAVCIS:CSI03:1,2010-10-13T01:00:00Z,29.4412,-92.0613,24.79,11111222 
WAVCIS,ioos:station:WAVCIS:CSI03:1,2010-10-13T02:00:00Z,29.4412,-92.0613,24.84,11111222 
WAVCIS,ioos:station:WAVCIS:CSI03:1,2010-10-13T04:00:00Z,29.4412,-92.0613,24.47,11111222 
WAVCIS,ioos:station:WAVCIS:CSI03:1,2010-10-13T05:00:00Z,29.4412,-92.0613,23.76,11111222 
WAVCIS,ioos:station:WAVCIS:CSI03:1,2010-10-13T06:00:00Z,29.4412,-92.0613,23.22,11111222 
WAVCIS,ioos:station:WAVCIS:CSI03:1,2010-10-13T07:00:00Z,29.4412,-92.0613,22.81,11111222 
WAVCIS,ioos:station:WAVCIS:CSI03:1,2010-10-13T08:00:00Z,29.4412,-92.0613,22.46,11111222 
WAVCIS,ioos:station:WAVCIS:CSI03:1,2010-10-13T09:00:00Z,29.4412,-92.0613,22.35,11111222 
WAVCIS,ioos:station:WAVCIS:CSI03:1,2010-10-13T10:00:00Z,29.4412,-92.0613,22.42,11111222 
WAVCIS,ioos:station:WAVCIS:CSI03:1,2010-10-13T11:00:00Z,29.4412,-92.0613,22.39,11111222 
WAVCIS,ioos:station:WAVCIS:CSI03:1,2010-10-13T12:00:00Z,29.4412,-92.0613,21.69,11111222 
WAVCIS,ioos:station:WAVCIS:CSI03:1,2010-10-13T13:00:00Z,29.4412,-92.0613,21.32,11111222 
WAVCIS,ioos:station:WAVCIS:CSI03:1,2010-10-13T14:00:00Z,29.4412,-92.0613,20.93,11111222 
WAVCIS,ioos:station:WAVCIS:CSI03:1,2010-10-13T15:00:00Z,29.4412,-92.0613,20.58,11111222 
WAVCIS,ioos:station:WAVCIS:CSI03:1,2010-10-13T16:00:00Z,29.4412,-92.0613,21.69,11111222 
WAVCIS,ioos:station:WAVCIS:CSI03:1,2010-10-13T17:00:00Z,29.4412,-92.0613,22.6,11111222 
WAVCIS,ioos:station:WAVCIS:CSI03:1,2010-10-13T18:00:00Z,29.4412,-92.0613,23.54,11111222 
WAVCIS,ioos:station:WAVCIS:CSI03:1,2010-10-13T19:00:00Z,29.4412,-92.0613,23.99,11111222 
WAVCIS,ioos:station:WAVCIS:CSI03:1,2010-10-13T20:00:00Z,29.4412,-92.0613,24.35,11111222 
WAVCIS,ioos:station:WAVCIS:CSI03:1,2010-10-13T21:00:00Z,29.4412,-92.0613,24.82,11111222 
WAVCIS,ioos:station:WAVCIS:CSI03:1,2010-10-13T22:00:00Z,29.4412,-92.0613,25.05,11111222 
WAVCIS,ioos:station:WAVCIS:CSI03:1,2010-10-13T23:00:00Z,29.4412,-92.0613,25.19,11111222 
WAVCIS,ioos:station:WAVCIS:CSI03:1,2010-10-14T00:00:00Z,29.4412,-92.0613,24.83,11111222 
WAVCIS,ioos:station:WAVCIS:CSI03:1,2010-10-14T01:00:00Z,29.4412,-92.0613,24.55,11111222 
WAVCIS,ioos:station:WAVCIS:CSI03:1,2010-10-14T02:00:00Z,29.4412,-92.0613,24.29,11111222 
WAVCIS,ioos:station:WAVCIS:CSI03:1,2010-10-14T03:00:00Z,29.4412,-92.0613,24.16,11111222 
WAVCIS,ioos:station:WAVCIS:CSI03:1,2010-10-14T04:00:00Z,29.4412,-92.0613,23.99,11111222 
WAVCIS,ioos:station:WAVCIS:CSI03:1,2010-10-14T05:00:00Z,29.4412,-92.0613,23.7,11111222 
WAVCIS,ioos:station:WAVCIS:CSI03:1,2010-10-14T06:00:00Z,29.4412,-92.0613,23.59,11111222 
WAVCIS,ioos:station:WAVCIS:CSI03:1,2010-10-14T07:00:00Z,29.4412,-92.0613,23.83,11111222 
WAVCIS,ioos:station:WAVCIS:CSI03:1,2010-10-14T08:00:00Z,29.4412,-92.0613,23.48,11111222 
WAVCIS,ioos:station:WAVCIS:CSI03:1,2010-10-14T09:00:00Z,29.4412,-92.0613,22.05,11111222 
WAVCIS,ioos:station:WAVCIS:CSI03:1,2010-10-14T10:00:00Z,29.4412,-92.0613,21.68,11111222 
WAVCIS,ioos:station:WAVCIS:CSI03:1,2010-10-14T11:00:00Z,29.4412,-92.0613,21.38,11111222 
WAVCIS,ioos:station:WAVCIS:CSI03:1,2010-10-14T12:00:00Z,29.4412,-92.0613,20.81,11111222 
WAVCIS,ioos:station:WAVCIS:CSI03:1,2010-10-14T13:00:00Z,29.4412,-92.0613,20.88,11111222 
WAVCIS,ioos:station:WAVCIS:CSI03:1,2010-10-14T14:00:00Z,29.4412,-92.0613,20.52,11111222 
WAVCIS,ioos:station:WAVCIS:CSI03:1,2010-10-14T15:00:00Z,29.4412,-92.0613,20.56,11111222 
WAVCIS,ioos:station:WAVCIS:CSI03:1,2010-10-14T16:00:00Z,29.4412,-92.0613,21.13,11111222 
WAVCIS,ioos:station:WAVCIS:CSI03:1,2010-10-14T17:00:00Z,29.4412,-92.0613,21.99,11111222 
WAVCIS,ioos:station:WAVCIS:CSI03:1,2010-10-14T18:00:00Z,29.4412,-92.0613,22.42,11111222 
WAVCIS,ioos:station:WAVCIS:CSI03:1,2010-10-14T19:00:00Z,29.4412,-92.0613,23.33,11111222 
WAVCIS,ioos:station:WAVCIS:CSI03:1,2010-10-14T20:00:00Z,29.4412,-92.0613,24.28,11111222 
WAVCIS,ioos:station:WAVCIS:CSI03:1,2010-10-14T21:00:00Z,29.4412,-92.0613,25.14,11111222 
WAVCIS,ioos:station:WAVCIS:CSI03:1,2010-10-14T22:00:00Z,29.4412,-92.0613,25.58,11111222 
WAVCIS,ioos:station:WAVCIS:CSI03:1,2010-10-14T23:00:00Z,29.4412,-92.0613,25.38,11111222 
WAVCIS,ioos:station:WAVCIS:CSI03:1,2010-10-15T00:00:00Z,29.4412,-92.0613,24.87,11111222 